DECAYED

STARLINK-1538, 46071 (Decayed)

Orbit data source: Space-Track

STARLINK-1538, 46071 was a payload satellite owned by SpaceX/Seattle (US) in LEO that was launched on Fri, 07 Aug 2020 UTC via an FALCON 9 launch vehicle from the Air Force Eastern Test Range (AFETR). Payload-class satellites include a variety of spacecraft equipped with specific instruments for various scientific and technological missions. These include communications satellites like Starlink; space stations such as the ISS; scientific satellites like the Hubble; Earth observation satellites from companies like Planet Labs, Umbra, and HawkEye 360; GPS; miniature CubeSats for education and research; and military/defense satellites.

Not visible in the next 10 days
Identifier
46071, 2020-055AW
Orbit
Decayed
Country
Flag of USUS
Related business
Manufacturer
SpaceX/Seattle
Mission
Decayed Commercial Communications
Bus & Motor
STARLINK, Unknown motor
Mass
260 kg wet, ~248 kg dry
Launch date (UTC)
2020-08-07 (6 years ago)
Launch vehicle
FALCON 9
Launch site
Air Force Eastern Test Range (AFETR)
Object type
Payload
Rocket body
Debris
Shape & HBR
Box + 1 Pan, 10.1 m
Radar Cross Section
13.562 m², Large (>1 m²)

Expand to show TLE details & history
Last TLE update: 2 years ago

TLE from 2 years ago
0 STARLINK-1538
1 46071U 20055AW  24365.74817185  .31379399  12279-4  26306-2 0  9999
2 46071  53.0206 221.8018 0003292 191.5710 212.1834 16.38843382243688
Epoch: 2024-12-30T17:57Z
TLE epoch observation values (Epoch: 2024-12-30T17:57:22.047Z)
Latitude
33.63494°
Longitude
-117.33362°
Altitude
173.01 km
Speed
7.806 km/s
True Right ascension
16h 46m 41s
True Declination
33° 27' 45"
Sunlit
Object was in daylight at epoch
Visualization orbit readout
Latitude
Unknown
Longitude
Unknown
Altitude
Unknown
Speed
Unknown
Apparent Right ascension
Unknown
Apparent Declination
Unknown
Sunlit
N/A
Visualization observer readout
Local Sidereal Time
12:31:25
Azimuth
Unknown
Elevation
Unknown
Doppler factor
Unknown
Orbital elements
Apogee altitude
171.328 km
Perigee altitude
167.017 km
Semi-major axis
6,547.31 km
Eccentricity
0.00033
Inclination
53.0206°
RAAN
221.8018°
Arg. of periapsis
191.571°
True anomaly
212.16331°
Mean anomaly
212.1834°
Eccentric anomaly
212.17336°
Mean motion
4.09684 °/min
Orbital period
87.87 mins
BSTAR
0.0026306
Loading maneuver chart data...
Computing Atmospheric mass density...

Documentation

Showing up to 5 results
|